Location: ??????
(41.3164°N, 22.6615°E)
Time: 15:31:23
(UTC+00:00)

CANX-2 - Pass Details

Date: 13 August 2022
Orbit: 591 x 608 km, 97.7° (Epoch: 01 October)

Event Time Altitude Azimuth Distance (km) Brightness Sun altitude
Rises 01:51:23 0° 18° (NNE) 2,849 ? -17.8°
Reaches altitude 10° 01:53:38 10° 24° (NNE) 1,945 ? -17.5°
Maximum altitude 01:57:43 47° 99° (E) 799 ? -16.9°
Enters shadow 02:01:44 10° 174° (S) 1,918 ? -16.3°
